Theta_e
287 287 286 286 285 285 284 284 284 284 284 284 284 285 286 287 287 288 288 287 286 285 284 282 281 280 279 279 280 280 281 282 284 287 288 291 293 294 295 295 295 295
287 286 286 285 285 284 284 284 284 284 284 284 284 285 286 287 287 287 287 287 286 285 283 281 280 279 278 278 279 280 281 282 284 286 287 290 292 293 294 295 295 295
286 286 285 284 284 284 283 283 283 283 283 284 284 285 286 286 287 287 287 286 285 284 283 281 280 279 278 278 278 279 281 282 283 285 287 289 291 292 294 295 295 295
286 285 285 284 283 283 283 283 283 283 283 284 284 285 286 286 286 287 287 285 283 283 282 281 280 279 278 277 277 278 280 281 282 284 286 288 290 291 293 294 295 295
285 284 284 283 283 283 282 282 282 283 283 284 284 285 285 286 286 286 286 285 283 281 281 281 279 278 277 276 276 277 279 281 282 283 285 287 289 290 292 294 294 294
285 284 283 283 282 282 282 282 282 282 283 284 284 285 285 285 285 284 283 283 282 280 280 280 278 277 276 275 275 276 278 279 281 282 284 286 289 291 292 293 293 294
284 284 283 283 282 282 282 282 282 282 283 283 284 284 284 284 284 284 281 279 278 278 278 278 277 276 275 274 274 275 277 279 280 281 283 286 288 290 292 292 293 294
284 284 283 283 282 282 282 282 282 283 283 283 283 283 283 283 282 282 281 278 276 276 277 276 275 274 274 274 274 275 277 279 280 281 282 285 286 288 291 292 292 293
284 283 283 282 282 282 282 282 282 283 282 282 282 282 282 282 280 278 279 278 275 274 274 273 272 272 272 273 274 275 277 279 280 280 281 283 285 287 290 291 292 292
284 283 283 282 282 282 282 282 282 283 282 282 282 282 281 282 280 277 276 275 272 271 271 271 270 271 271 272 274 275 276 277 279 279 280 282 284 286 289 291 291 292
283 283 282 282 282 282 281 282 282 283 282 282 282 282 281 280 278 275 273 272 271 270 270 270 270 270 271 272 273 274 274 276 277 278 279 281 283 286 288 290 291 291
283 283 282 282 282 281 281 282 282 282 282 282 281 281 281 280 278 275 272 271 270 270 269 270 270 270 271 271 272 272 273 276 278 278 279 281 283 285 288 289 290 291
283 282 282 282 281 281 281 282 282 282 282 281 281 280 279 278 277 275 273 271 270 270 270 270 270 270 271 271 272 272 273 275 277 279 279 280 282 285 287 289 290 291
282 282 282 281 280 281 281 281 282 282 281 281 281 280 278 277 275 273 272 271 270 271 270 270 270 270 271 272 272 273 273 275 277 278 279 279 281 283 286 288 290 291
281 281 280 280 280 280 281 281 281 282 281 281 280 279 278 276 274 272 271 272 271 271 270 270 270 270 271 272 273 273 273 274 276 277 278 279 280 282 285 287 289 290
280 280 279 279 280 280 281 281 281 281 281 281 280 279 277 276 274 272 271 271 272 271 270 270 271 271 271 272 273 274 274 274 276 277 278 279 280 281 283 286 288 289
279 279 279 279 280 280 280 281 281 281 281 281 280 279 277 275 275 273 272 271 271 271 271 271 272 273 273 273 273 274 274 275 276 277 277 278 279 280 282 284 287 288
278 278 278 279 279 280 280 281 281 281 281 280 279 278 276 275 275 275 274 272 272 272 272 272 273 274 275 274 273 274 274 275 275 276 276 277 278 279 281 283 285 287
278 278 278 279 279 280 280 281 281 281 280 279 279 278 277 275 275 275 274 274 273 273 273 274 275 276 276 275 274 274 275 275 275 275 276 276 277 278 280 282 283 285
277 277 278 279 279 279 280 280 280 280 279 278 277 277 276 275 274 274 274 274 274 274 274 275 276 277 277 276 275 275 275 276 276 276 276 276 277 278 280 281 283 284
277 277 278 279 279 279 280 280 280 279 278 276 275 274 273 273 272 272 272 273 274 275 275 276 277 278 278 277 276 275 276 276 276 276 277 277 278 279 280 281 282 283
276 277 278 278 279 279 279 280 279 278 276 274 273 273 272 272 272 271 271 273 274 275 275 276 278 279 279 278 277 276 276 276 276 276 277 277 278 279 280 281 282 283
276 277 278 278 278 278 279 279 279 277 275 273 272 272 272 272 272 271 272 272 273 275 275 275 278 280 280 279 278 277 276 276 276 276 276 277 279 280 281 281 282 283
276 276 277 277 277 277 278 278 278 276 274 272 271 271 272 271 270 270 270 271 272 274 274 274 276 279 281 279 279 278 277 276 277 276 276 277 279 280 281 281 282 283
276 276 277 277 277 277 277 277 277 275 274 272 271 271 271 270 269 268 269 270 272 273 274 274 275 279 280 280 279 280 279 277 277 277 277 277 279 280 281 281 282 282
275 276 276 276 276 276 276 276 276 275 274 272 271 271 271 269 268 267 268 270 271 272 274 275 275 277 279 279 279 280 280 279 278 278 278 278 279 280 281 281 282 283
Wind_Speed
36 37 38 40 41 42 43 44 46 48 49 49 49 51 52 52 53 52 53 52 50 49 48 47 45 43 41 39 36 35 36 38 40 41 39 37 35 33 33 35 39 40
36 37 39 40 41 42 43 44 45 47 49 49 49 50 51 52 53 53 53 53 51 49 48 48 47 43 42 40 38 37 38 40 41 40 40 39 35 34 33 34 37 40
37 38 39 40 42 43 44 45 46 46 48 48 48 49 50 52 53 53 54 53 52 50 48 47 47 44 42 41 39 39 40 40 40 40 41 41 36 34 35 34 35 39
37 38 39 41 42 43 45 46 47 47 47 48 48 48 50 52 52 53 54 53 52 51 48 46 46 44 42 41 40 39 39 39 40 40 41 41 37 34 35 34 34 38
38 39 40 41 42 44 45 46 47 47 47 48 48 49 50 52 53 54 54 53 52 51 49 45 44 43 41 40 40 37 36 37 39 40 41 42 38 34 35 33 33 37
39 40 41 42 43 44 45 46 47 47 48 49 49 49 50 51 53 54 53 53 52 51 49 45 43 42 40 39 38 36 35 37 38 39 40 42 39 36 35 32 32 36
40 41 42 43 44 45 46 47 47 47 48 49 49 50 50 51 53 53 51 51 52 52 49 44 40 39 38 37 38 37 37 39 40 39 41 41 39 37 35 31 31 35
41 42 43 44 45 46 47 47 48 48 48 49 50 50 50 50 52 52 52 50 50 51 47 41 38 36 35 34 36 38 37 38 40 40 41 41 39 38 35 29 28 34
42 43 44 45 46 47 47 47 48 48 48 49 49 50 50 50 49 49 51 49 48 48 43 39 37 35 35 33 33 34 33 35 38 39 40 41 40 39 35 28 26 31
43 44 45 45 46 47 47 47 48 48 49 49 49 50 50 50 49 48 49 47 45 45 41 37 37 36 35 33 31 31 31 32 35 36 38 40 42 40 37 30 26 29
43 44 45 45 46 47 47 48 49 49 49 49 49 50 50 49 48 46 47 46 42 41 40 37 37 37 35 33 30 30 32 34 35 36 38 40 43 42 39 33 27 27
42 43 44 45 46 47 47 48 49 49 49 48 48 49 50 49 48 44 43 45 42 40 40 39 38 37 34 33 33 33 34 35 36 39 40 42 44 43 40 37 31 28
43 43 44 45 46 47 47 48 48 48 47 47 47 48 49 48 48 46 43 44 44 41 38 38 38 37 34 33 33 33 35 35 34 37 40 41 44 44 42 38 34 32
42 43 44 45 46 47 47 47 47 47 47 47 47 48 48 47 47 47 46 45 44 41 38 37 37 36 35 33 34 33 33 32 30 33 37 38 40 43 43 40 36 34
42 43 44 45 46 47 47 47 47 47 47 48 48 48 48 48 46 47 48 45 42 39 38 37 36 36 36 33 33 32 31 30 27 28 31 34 37 41 42 41 38 35
42 43 44 45 46 46 47 47 48 48 47 47 48 49 49 48 46 45 46 45 41 38 38 36 35 36 37 35 31 29 30 31 30 28 28 30 33 37 40 42 39 34
42 43 44 45 46 46 47 47 48 48 48 48 49 50 49 49 46 42 41 40 39 37 37 37 36 35 35 34 32 29 30 32 32 32 32 31 30 33 38 41 40 36
41 43 44 44 45 46 47 47 48 49 49 50 50 50 49 48 45 41 37 36 36 36 36 36 36 36 34 33 33 31 30 32 34 35 36 36 34 32 35 39 41 39
40 42 43 44 45 46 47 48 49 50 50 50 50 50 49 46 43 40 38 36 35 35 35 35 35 35 35 35 33 31 30 31 33 33 33 35 36 33 34 38 40 40
40 41 43 44 45 46 47 48 49 51 51 51 51 51 50 48 44 42 40 39 37 35 34 35 35 33 33 34 33 31 30 30 32 33 32 33 34 33 33 36 39 40
40 41 42 44 45 46 47 48 50 51 51 52 51 50 49 48 45 43 41 40 38 36 35 34 33 31 31 33 32 30 29 30 31 32 32 32 33 33 34 37 39 40
39 41 42 44 45 45 47 48 50 51 52 51 50 49 47 45 43 40 39 39 38 35 35 35 32 29 29 30 29 27 27 29 31 32 31 31 32 32 34 37 37 38
38 40 42 43 44 45 46 48 50 51 51 49 48 48 46 44 41 39 39 40 39 35 34 36 34 29 27 28 27 25 25 27 30 31 29 29 30 31 32 34 34 33
37 39 40 42 43 44 45 47 49 50 49 47 45 45 44 42 41 41 42 42 40 35 35 37 36 29 25 26 26 24 24 26 28 30 30 30 29 29 32 35 36 34
36 37 38 40 42 43 44 46 47 49 48 46 43 41 41 41 41 43 45 43 39 37 36 37 35 29 26 28 28 24 21 24 27 29 30 31 30 28 30 33 35 34
35 36 36 38 40 41 42 43 45 48 48 45 43 41 39 40 42 44 46 43 39 40 40 36 34 32 31 31 30 27 23 22 26 29 30 31 30 30 32 33 34 33
Wind_Direction
321 321 321 320 320 321 320 320 320 319 319 320 320 319 319 319 318 318 316 313 310 306 303 301 298 294 291 288 281 272 265 260 255 253 254 256 258 262 264 260 255 258
321 321 321 321 320 321 320 320 319 319 319 319 319 319 318 318 317 316 315 312 309 307 304 300 297 293 289 286 280 270 263 258 254 253 255 255 255 258 261 261 257 257
322 322 322 322 321 321 321 320 319 319 319 318 319 319 318 317 317 316 314 310 308 307 304 300 296 291 287 284 280 271 264 260 255 252 253 254 255 256 256 257 258 256
323 323 323 322 322 321 321 320 319 320 319 319 319 319 318 317 316 314 312 310 307 307 304 299 294 291 287 283 280 272 264 259 256 253 253 253 254 256 255 253 255 256
325 324 324 323 322 322 321 320 320 321 320 320 321 320 319 317 315 313 311 309 307 307 305 300 294 291 287 283 280 272 264 259 255 253 253 252 253 255 254 252 253 255
325 325 325 324 323 322 321 320 322 322 322 322 321 321 319 317 315 313 311 310 308 307 306 301 296 292 288 283 280 270 261 258 255 253 253 251 251 253 251 251 253 254
326 326 326 324 323 323 322 322 323 324 324 323 321 321 319 316 315 312 310 308 304 305 305 301 296 293 289 283 278 270 261 255 253 251 251 250 250 252 249 250 254 253
327 327 326 325 324 323 322 324 325 325 325 324 321 321 319 316 314 310 309 307 300 301 305 303 300 296 292 286 278 272 265 257 254 251 251 251 250 251 249 250 255 254
328 327 326 325 324 323 323 326 327 327 326 324 321 320 318 316 313 308 309 309 302 301 305 304 303 298 294 292 284 279 271 259 255 254 253 252 250 249 247 248 255 256
329 328 326 325 324 324 326 328 329 328 327 325 322 319 317 315 314 310 310 310 304 302 303 302 300 296 292 290 285 282 276 264 258 256 254 253 251 248 246 245 252 256
329 327 326 325 325 325 328 329 330 329 327 325 322 319 317 317 316 313 311 310 305 300 299 297 297 296 292 286 281 277 273 266 259 254 252 251 250 247 245 244 247 252
328 327 326 326 326 327 330 331 330 329 326 325 322 320 320 319 318 316 311 309 307 302 297 294 296 298 293 288 285 280 278 272 262 255 252 250 249 247 244 244 244 246
329 328 327 327 328 330 332 332 330 329 326 325 323 322 322 321 320 318 314 311 309 305 298 293 295 297 293 289 289 285 284 280 269 260 257 253 250 247 243 242 244 244
329 328 328 329 331 333 333 332 331 329 328 327 326 324 323 322 321 319 316 312 309 306 302 296 294 295 293 292 294 292 289 285 273 262 260 257 253 248 243 241 242 243
329 329 330 332 333 334 333 333 332 331 330 329 328 326 324 324 322 319 315 313 310 308 305 299 293 293 293 294 294 293 288 286 280 270 264 261 256 249 244 241 240 242
330 331 332 333 334 334 334 334 334 333 332 331 329 328 326 325 323 318 314 314 313 311 308 302 296 293 294 295 294 287 278 276 279 278 274 271 265 256 247 241 238 240
332 333 333 334 334 335 336 336 336 335 335 334 332 330 328 326 323 319 315 314 315 314 311 307 302 300 299 297 294 287 274 267 268 266 262 261 263 262 253 243 236 236
333 333 333 333 335 337 338 338 338 337 337 336 334 332 330 326 324 322 320 319 318 317 315 310 307 308 306 300 292 285 275 266 264 261 255 252 254 258 257 247 238 236
334 333 334 335 336 338 340 340 340 339 339 338 335 334 331 329 327 327 327 327 324 320 318 316 312 311 311 306 296 285 274 267 264 262 259 256 254 254 255 250 242 238
335 334 335 335 337 340 342 342 341 340 340 340 337 335 334 331 331 332 332 330 327 322 320 318 315 312 311 309 301 286 273 267 264 262 260 258 256 253 253 252 246 242
336 336 336 336 338 342 344 345 343 341 342 341 338 335 333 331 331 331 331 329 326 323 320 318 315 314 314 312 303 287 272 267 265 263 259 259 257 253 251 249 247 244
337 337 337 338 340 344 346 347 345 343 343 341 338 335 333 331 331 331 331 330 327 323 322 320 318 318 317 313 306 292 274 267 266 263 259 258 256 254 253 253 251 248
339 339 339 340 343 346 348 348 346 344 343 341 338 336 334 332 332 332 333 333 331 327 326 324 323 324 321 316 312 299 279 268 266 263 258 256 256 253 252 252 252 250
341 341 341 342 345 349 350 349 346 344 343 342 339 336 333 333 333 333 333 335 335 333 330 326 324 326 327 324 321 307 283 270 269 266 258 254 254 255 254 253 251 250
342 343 344 345 347 350 351 350 347 344 344 343 341 338 336 335 335 333 332 335 338 339 336 330 326 329 332 331 330 323 296 274 269 268 260 252 251 253 256 257 257 255
344 344 346 348 349 351 352 351 349 346 345 344 342 342 340 338 337 336 333 334 341 344 342 338 334 334 334 330 328 327 316 287 268 266 263 256 253 253 253 256 260 260